Location: Kawakawa
(35.3830°S, 174.0670°E)
Time: 22:54:52
(UTC+13:00)

Cosmos 2322 Rocket - Pass Details

Date: 24 January 2019
Orbit: 834 x 849 km, 71.0° (Epoch: 20 February)

Event Time Altitude Azimuth Distance (km) Brightness Sun altitude
Rises 22:55:56 0° 310° (NW) 3,388 5.4 -23.5°
Reaches altitude 10° 22:58:43 10° 298° (WNW) 2,464 4.8 -23.9°
Maximum altitude 23:03:30 28° 240° (WSW) 1,560 4.2 -24.5°
Drops below altitude 10° 23:08:21 10° 182° (S) 2,496 5.3 -25.2°
Sets 23:11:12 0° 170° (S) 3,440 6.0 -25.5°
